Lamar, CO

12:00 AM MDT on March 25, 2017 (GMT -0600)
Lamar Municipal

Weather History for KLAA - February, 2014

Change the Weather History Date:

Monday, February 24, 2014

  Actual Average Record
Temperature  
Mean Temperature 36 °F 36 °F  
Max Temperature 52 °F 52 °F 79 °F (1981)
Min Temperature 19 °F 20 °F -18 °F (1960)
Degree Days  
Heating Degree Days 29 29  
Month to date heating degree days 877 767  
Since 1 July heating degree days 4161 4198  
Cooling Degree Days 0 0  
Month to date cooling degree days 0 0  
Year to date cooling degree days 0 0  
Moisture  
Dew Point 22 °F    
Average Humidity 64    
Maximum Humidity 92    
Minimum Humidity 35    
Precipitation  
Precipitation 0.00 in 0.02 in 0.33 in (1952)
Month to date precipitation 0.11  
Year to date precipitation 0.27  
Sea Level Pressure  
Sea Level Pressure 30.07 in    
Wind  
Wind Speed 11 mph (ESE)    
Max Wind Speed 32 mph    
Max Gust Speed 41 mph    
Visibility 7 miles    
Events      
T = Trace of Precipitation, MM = Missing Value Source: NWS Daily Summary

Daily Weather History Graph

Daily Weather History Graph

Search for Another Location

Airport or City:

Trip Planner

Search our weather history database for the weather conditions in past years. The results will help you decide how hot, cold, wet, or windy it might be!

Date:

Astronomy

Feb. 24, 2014 Rise Set
Actual Time 6:29 AM MST 5:39 PM MST
Civil Twilight 6:02 AM MST 6:05 PM MST
Nautical Twilight 5:32 AM MST 6:36 PM MST
Astronomical Twilight 5:01 AM MST 7:06 PM MST
Moon 2:27 AM MST (2/24) 12:45 PM MST (2/24)
Length of Visible Light 12h 02m
Length of Day
11h 09m
Waning Crescent, 27% of the Moon is Illuminated
Feb 24
Waning Crescent
Mar 1
New
Mar 8
First Quarter
Mar 16
Full
Mar 23
Last Quarter

Hourly Weather History & Observations

Time (MST) Temp. Windchill Dew Point Humidity Pressure Visibility Wind Dir Wind Speed Gust Speed Precip Events Conditions
12:33 AM 25.0 °F 11.7 °F 21.0 °F 85% 30.10 in 6.0 mi SE 17.3 mph - N/A   Overcast
12:53 AM 25.0 °F 11.7 °F 21.0 °F 85% 30.14 in 6.0 mi ESE 17.3 mph 21.9 mph N/A   Overcast
1:48 AM 24.8 °F 8.1 °F 19.4 °F 80% 30.03 in 6.0 mi SSE 28.8 mph 35.7 mph N/A   Scattered Clouds
1:53 AM 24.1 °F 6.9 °F 19.9 °F 84% 30.07 in 6.0 mi SSE 29.9 mph 35.7 mph N/A   Partly Cloudy
2:53 AM 24.1 °F 7.7 °F 19.9 °F 84% 30.07 in 7.0 mi SSE 26.5 mph 35.7 mph N/A   Clear
3:53 AM 23.0 °F 13.1 °F 19.9 °F 88% 30.08 in 7.0 mi South 9.2 mph - N/A   Partly Cloudy
4:53 AM 21.0 °F 14.6 °F 19.0 °F 92% 30.07 in 6.0 mi South 4.6 mph - N/A   Clear
5:53 AM 21.0 °F 12.4 °F 18.0 °F 88% 30.09 in 6.0 mi South 6.9 mph - N/A   Clear
6:36 AM 19.9 °F 14.9 °F 17.1 °F 89% 30.02 in 5.0 mi SSW 3.5 mph - N/A   Scattered Clouds
6:45 AM 21.0 °F 14.6 °F 18.0 °F 88% 30.02 in 5.0 mi SSW 4.6 mph - N/A   Mostly Cloudy
6:53 AM 21.0 °F - 18.0 °F 88% 30.10 in 5.0 mi North - - N/A   Mostly Cloudy
7:05 AM 21.9 °F - 19.0 °F 89% 30.02 in 5.0 mi North - - N/A   Overcast
7:35 AM 24.1 °F 19.7 °F 21.9 °F 91% 30.02 in 4.0 mi South 3.5 mph - N/A   Overcast
7:53 AM 25.0 °F 20.7 °F 21.9 °F 88% 30.09 in 5.0 mi SW 3.5 mph - N/A   Overcast
9:45 AM 28.0 °F 22.8 °F 23.0 °F 81% 30.01 in 5.0 mi Variable 4.6 mph - N/A   Haze
9:53 AM 28.0 °F 22.8 °F 23.0 °F 81% 30.06 in 6.0 mi SW 4.6 mph - N/A   Haze
10:28 AM 30.0 °F 26.5 °F 24.1 °F 79% 30.00 in 7.0 mi Variable 3.5 mph - N/A   Mostly Cloudy
10:45 AM 32.0 °F - 25.0 °F 75% 30.00 in 7.0 mi Calm Calm - N/A   Scattered Clouds
10:53 AM 32.0 °F - 24.1 °F 73% 30.06 in 7.0 mi Calm Calm - N/A   Partly Cloudy
11:53 AM 35.1 °F 32.2 °F 25.0 °F 67% 30.03 in 8.0 mi Variable 3.5 mph - N/A   Clear
12:53 PM 39.9 °F - 26.1 °F 58% 29.98 in 9.0 mi Calm Calm - N/A   Clear
1:53 PM 46.0 °F - 26.1 °F 46% 29.93 in 10.0 mi Calm Calm - N/A   Clear
2:53 PM 50.0 °F - 25.0 °F 38% 29.91 in 10.0 mi East 5.8 mph - N/A   Clear
3:53 PM 51.1 °F - 25.0 °F 36% 29.90 in 10.0 mi North - - N/A   Clear
4:53 PM 50.0 °F - 26.1 °F 39% 29.91 in 10.0 mi ENE 8.1 mph - N/A   Clear
5:53 PM 39.9 °F 34.5 °F 25.0 °F 55% 29.95 in 9.0 mi East 8.1 mph - N/A   Clear
6:53 PM 41.0 °F 32.2 °F 23.0 °F 49% 30.05 in 10.0 mi NNE 18.4 mph - N/A   Clear
7:14 PM 37.0 °F 25.6 °F 26.1 °F 65% 30.05 in 7.0 mi NNE 24.2 mph 41.4 mph N/A   Partly Cloudy
7:45 PM 32.0 °F 19.8 °F 25.0 °F 75% 30.10 in 6.0 mi NNE 20.7 mph 35.7 mph N/A   Haze
7:53 PM 30.9 °F 19.1 °F 24.1 °F 76% 30.18 in 6.0 mi NE 18.4 mph 28.8 mph N/A   Haze
8:20 PM 30.9 °F 17.8 °F 24.1 °F 76% 30.15 in 6.0 mi NE 23.0 mph 34.5 mph N/A   Haze
8:50 PM 28.4 °F 13.8 °F 21.2 °F 74% 30.18 in 7.0 mi NE 25.3 mph 35.7 mph N/A   Overcast
8:53 PM 28.9 °F 14.5 °F 21.9 °F 75% 30.25 in 7.0 mi NE 25.3 mph 35.7 mph N/A   Overcast
9:53 PM 28.0 °F 13.9 °F 19.9 °F 72% 30.30 in 6.0 mi NNE 23.0 mph 27.6 mph N/A   Haze
10:53 PM 26.1 °F 14.5 °F 19.0 °F 75% 30.31 in 10.0 mi NNE 13.8 mph - N/A   Overcast
11:53 PM 25.0 °F 13.6 °F 17.1 °F 72% 30.35 in 10.0 mi NNE 12.7 mph - N/A   Overcast